TimeCST,TemperatureF,Dew PointF,Humidity,Sea Level PressureIn,VisibilityMPH,Wind Direction,Wind SpeedMPH,Gust SpeedMPH,PrecipitationIn,Events,Conditions,WindDirDegrees,DateUTC
12:53 AM,27.0,17.1,66,30.52,10.0,NW,11.5,-,N/A,,Overcast,320,2013-12-24 06:53:00
1:53 AM,25.0,18.0,75,30.53,4.0,North,11.5,-,0.00,Snow,Light Snow,360,2013-12-24 07:53:00
2:41 AM,23.0,16.0,74,30.54,3.0,NNW,15.0,-,0.00,Snow,Light Snow,330,2013-12-24 08:41:00
2:53 AM,21.9,15.1,75,30.56,6.0,NNW,12.7,19.6,0.00,Snow,Light Snow,330,2013-12-24 08:53:00
3:24 AM,21.9,14.0,72,30.55,8.0,NW,12.7,-,0.00,Snow,Light Snow,320,2013-12-24 09:24:00
3:48 AM,19.4,10.4,68,30.55,10.0,NNW,12.7,-,0.00,,Overcast,330,2013-12-24 09:48:00
3:53 AM,19.0,10.0,68,30.57,10.0,NW,13.8,-,0.00,,Mostly Cloudy,320,2013-12-24 09:53:00
4:53 AM,17.1,10.0,74,30.58,10.0,NW,5.8,-,N/A,,Partly Cloudy,320,2013-12-24 10:53:00
5:13 AM,18.0,10.0,71,30.56,10.0,NNW,8.1,-,N/A,,Mostly Cloudy,340,2013-12-24 11:13:00
5:53 AM,18.0,10.0,71,30.59,10.0,NW,8.1,-,0.00,,Overcast,310,2013-12-24 11:53:00
6:42 AM,16.0,8.1,71,30.60,10.0,NW,5.8,-,N/A,,Partly Cloudy,320,2013-12-24 12:42:00
6:53 AM,16.0,8.1,71,30.62,10.0,NW,6.9,-,N/A,,Clear,320,2013-12-24 12:53:00
7:53 AM,17.1,8.1,68,30.62,10.0,North,10.4,-,N/A,,Clear,10,2013-12-24 13:53:00
8:53 AM,18.0,7.0,62,30.65,10.0,North,8.1,-,N/A,,Clear,360,2013-12-24 14:53:00
9:53 AM,19.9,7.0,57,30.65,10.0,Calm,Calm,-,N/A,,Clear,0,2013-12-24 15:53:00
10:53 AM,21.9,7.0,53,30.64,10.0,Variable,3.5,-,N/A,,Clear,0,2013-12-24 16:53:00
11:53 AM,23.0,5.0,46,30.63,10.0,Calm,Calm,-,N/A,,Clear,0,2013-12-24 17:53:00
12:53 PM,24.1,7.0,48,30.60,10.0,Variable,3.5,-,N/A,,Clear,0,2013-12-24 18:53:00
1:53 PM,26.1,8.1,47,30.56,10.0,Calm,Calm,-,N/A,,Clear,0,2013-12-24 19:53:00
2:53 PM,27.0,10.0,49,30.54,10.0,East,6.9,-,N/A,,Clear,100,2013-12-24 20:53:00
3:53 PM,26.1,9.0,49,30.55,10.0,East,4.6,-,N/A,,Clear,90,2013-12-24 21:53:00
4:53 PM,25.0,9.0,51,30.53,10.0,ESE,3.5,-,N/A,,Clear,120,2013-12-24 22:53:00
5:53 PM,23.0,10.9,60,30.52,10.0,ESE,4.6,-,N/A,,Clear,120,2013-12-24 23:53:00
6:53 PM,21.9,12.0,66,30.50,10.0,East,6.9,-,N/A,,Clear,100,2013-12-25 00:53:00
7:53 PM,23.0,12.9,65,30.49,10.0,Calm,Calm,-,N/A,,Clear,0,2013-12-25 01:53:00
8:53 PM,21.9,12.0,66,30.48,10.0,Calm,Calm,-,N/A,,Clear,0,2013-12-25 02:53:00
9:53 PM,21.0,12.9,71,30.47,10.0,SE,3.5,-,N/A,,Clear,130,2013-12-25 03:53:00
10:53 PM,21.9,12.9,68,30.46,10.0,SE,4.6,-,N/A,,Clear,140,2013-12-25 04:53:00
11:53 PM,21.9,12.9,68,30.43,10.0,SE,5.8,-,N/A,,Clear,140,2013-12-25 05:53:00